[Iaude] MPEC G24: 2017 FV128 [a=1.09,e=0.40,i=5.4,H=24.3]

mpec at si.edu mpec at si.edu
Sun Apr 2 15:11:32 EDT 2017


M.P.E.C. 2017-G24                                Issued 2017 Apr. 2, 19:07 UT
 
     The Minor Planet Electronic Circulars contain information on unusual
         minor planets and routine data on comets.  They are published
    on behalf of Division F of the International Astronomical Union by the
          Minor Planet Center, Smithsonian Astrophysical Observatory,
                          Cambridge, MA 02138, U.S.A.

             Prepared using the Tamkin Foundation Computer Network

                              MPC at CFA.HARVARD.EDU
            URL http://www.minorplanetcenter.net/    ISSN 1523-6714


                                  2017 FV128
 
Observations:
     K17FC8V* C2017 03 31.27145 12 52 51.10 +32 21 19.2          20.9 VqEG024G96
     K17FC8V  C2017 03 31.27570 12 52 49.88 +32 21 42.2          21.4 VqEG024G96
     K17FC8V  C2017 03 31.27996 12 52 48.52 +32 22 07.3          21.5 VqEG024G96
     K17FC8V  C2017 03 31.28618 12 52 46.63 +32 22 43.0          21.5 VqEG024G96
     K17FC8V  C2017 03 31.36882 12 52 21.09 +32 30 36.3          22.0 VqEG024G96
     K17FC8V  C2017 03 31.37105 12 52 20.33 +32 30 48.9          22.0 VqEG024G96
     K17FC8V  C2017 03 31.37325 12 52 19.67 +32 31 01.7          21.6 VqEG024G96
     K17FC8V  C2017 03 31.37542 12 52 19.08 +32 31 13.4          20.6 VqEG024G96
     K17FC8V  C2017 03 31.40207 12 52 10.84 +32 33 44.9          21.2 VqEG024I52
     K17FC8V  C2017 03 31.40501 12 52 10.01 +32 34 01.3          20.1 VqEG024I52
     K17FC8V  C2017 03 31.40647 12 52 09.50 +32 34 09.8                qEG024I52
     K17FC8V  C2017 03 31.43984 12 51 59.23 +32 37 19.4          21.0 RoEG024926
     K17FC8V  C2017 03 31.44470 12 51 57.73 +32 37 47.4          21.4 RoEG024926
     K17FC8V  C2017 03 31.44956 12 51 56.26 +32 38 14.3          20.7 RoEG024926
     K17FC8V  C2017 04 01.41806 12 47 04.00 +34 14 41.4          21.2 RoEG024926
     K17FC8V  C2017 04 01.42351 12 47 02.15 +34 15 13.6          21.1 RoEG024926
     K17FC8V  C2017 04 01.42895 12 47 00.30 +34 15 46.4          21.3 RoEG024926
     K17FC8V  C2017 04 02.43627 12 41 13.42 +36 02 57.8          21.3 RoEG024926
     K17FC8V  C2017 04 02.44113 12 41 11.48 +36 03 28.9          21.3 RoEG024926
     K17FC8V  C2017 04 02.44600 12 41 09.60 +36 03 59.4          21.3 RoEG024926
 
Observer details:
926 Tenagra II Observatory.  Observers M. Schwartz, P. R. Holvorcem.  Measurer
    M. Schwartz.  0.81-m f/7 Ritchey-Chretien + CCD.
G96 Mt. Lemmon Survey.  Observer G. J. Leonard.  Measurers E. J. Christensen,
    D. C. Fuls, A. R. Gibbs, A. D. Grauer, J. A. Johnson, R. A. Kowalski,
    S. M. Larson, G. J. Leonard, R. G. Matheny, R. L. Seaman, F. C. Shelly.
    1.5-m reflector + 10K CCD.
I52 Steward Observatory, Mt. Lemmon Station.  Observer J. A. Johnson.
    Measurers E. J. Christensen, D. C. Fuls, A. R. Gibbs, A. D. Grauer,
    J. A. Johnson, R. A. Kowalski, S. M. Larson, G. J. Leonard, R. G. Matheny,
    R. L. Seaman, F. C. Shelly.  1.0-m reflector + CCD.
 
Orbital elements:
2017 FV128                                               Earth MOID = 0.0141 AU
Epoch 2017 Feb. 16.0 TT = JDT 2457800.5                 MPC
M 254.26810              (2000.0)            P               Q
n   0.86213796     Peri.  250.66520     +0.55519916     +0.82830486
a   1.0933307      Node    53.28973     -0.72350498     +0.52561773
e   0.4000396      Incl.    5.38724     -0.41023706     +0.19400274
P   1.14           H   24.3           G   0.15           U   9
Residuals in seconds of arc
170331 G96  0.3-  0.8+    170331 G96  0.2+  0.4-    170401 926  0.5-  0.4+
170331 G96  0.7+  0.7-    170331 I52  0.0   0.0     170401 926  0.0   0.3-
170331 G96  0.0   0.2-    170331 I52  1.0+  0.2-    170401 926  0.3+  0.3-
170331 G96  0.2+  0.3-    170331 I52  0.2+  0.0     170402 926  0.3+  0.4+
170331 G96  0.2-  0.1+    170331 926  0.1+  0.0     170402 926  0.2-  0.3+
170331 G96  1.1-  0.0     170331 926  0.1-  0.6+    170402 926  0.0   0.5-
170331 G96  0.8-  0.3+    170331 926  0.1+  0.1+

Ephemeris:
2017 FV128               a,e,i = 1.09, 0.40, 5                   q = 0.6560
Date    TT    R. A. (2000) Decl.     Delta      r     Elong.  Phase     V
2017 03 03    13 28 00.5 +10 54 57   0.3321  1.2697   142.0    28.7    23.7
...
2017 03 18    13 24 03.2 +18 11 31   0.2127  1.1863   151.3    23.8    22.4
...
2017 03 26    13 10 57.9 +25 18 10   0.1584  1.1373   149.9    26.1    21.8
...
2017 04 01    12 49 18.1 +33 32 18   0.1231  1.0988   142.0    34.1    21.4
2017 04 02    12 43 53.2 +35 15 39   0.1177  1.0922   139.9    36.1    21.3
2017 04 03    12 37 42.4 +37 06 10   0.1126  1.0856   137.6    38.4    21.3
...
2017 04 09    11 32 36.3 +50 41 34   0.08682 1.0452   118.1    57.7    21.2
...
2017 04 17    07 05 56.9 +61 11 06   0.07415 0.9895    76.8    99.0    22.2
...
2017 05 02    03 13 06.1 +26 44 07   0.1301  0.8822    14.3   163.7    32.1

A. U. Tomatic                (C) Copyright 2017 MPC           M.P.E.C. 2017-G24




More information about the Iaude mailing list